Regional Weather Roundup
Issued by NWS State College, PA

Home | Current Version | Previous Version | Text Only | Print | Product List | Glossary On
Versions: 1 2 3 4 5 6 7 8 9 10 11 12 13 14 15 16 17 18 19 20 21 22 23 24 25 26 27 28 29 30 31 32 33 34 35 36 37 38 39 40 41 42 43 44 45 46 47 48 49 50
000
ASUS41 KCTP 262010
RWRCTP

REGIONAL WEATHER ROUNDUP
NATIONAL WEATHER SERVICE STATE COLLEGE PA
400 PM EDT SAT MAY 26 2018

Note: "fair" indicates few or no clouds below 12,000 feet with no
significant weather and/or obstructions to visibility.

* = STATION THAT DOES NOT REPORT PRECIPITATION /E.G. RAIN...SNOW...ETC/
    THUNDER OR FOG.

PAZ002>004-007>009-013>016-020>023-029>032-262100-
WESTERN PENNSYLVANIA

CITY           SKY/WX    TMP DP  RH WIND       PRES   REMARKS
ERIE           PTSUNNY   75  60  59 W5        29.83F
MEADVILLE      CLOUDY    77  64  64 SW8       29.85F
FRANKLIN*      NOT AVBL
NEW CASTLE     MOCLDY    75  71  87 CALM      29.86F
BEAVER COUNTY  CLOUDY    77  64  65 CALM      29.87F
BUTLER*        CLOUDY    76  65  68 CALM      29.87
PITTSBURGH INT LGT RAIN  77  65  66 W7        29.86S
PITTSBURGH     PTSUNNY   82  61  48 VRB5      29.84F
INDIANA*       PTSUNNY   82  57  42 VRB5      29.90F
LATROBE        MOSUNNY   84  59  42 W9        29.86F
WASHINGTON CO* PTSUNNY   79  66  64 N8        29.87F
$$

PAZ004>006-010>012-017>019-024>028-033>037-041-042-045-046-049>053-262100-
CENTRAL PENNSYLVANIA

CITY           SKY/WX    TMP DP  RH WIND       PRES   REMARKS
BRADFORD       CLOUDY    72  51  47 SW6       29.91F
DUBOIS         FAIR      79  61  53 VRB6      29.89F
CLEARFIELD     FAIR      85  55  35 VRB7      29.87F
JOHNSTOWN      FAIR      80  59  48 NW8       29.90F
ALTOONA        FAIR      88  58  36 NW5       29.86F
STATE COLLEGE  PTSUNNY   86  55  35 W5        29.84F
WILLIAMSPORT   FAIR      90  53  28 VRB5      29.78F
SELINSGROVE    PTSUNNY   85  71  63 CALM      29.80F
FT INDIANTOWN  FAIR      89  62  39 W8        29.80F
CAPITAL CITY   MOSUNNY   91  54  27 W3        29.79F
HARRISBURG     FAIR      90  57  32 W9        29.78F
YORK           FAIR      89  63  41 W7        29.80F
$$

PAZ038>040-043-044-047-048-054-055-060>062-067>071-262100-
EASTERN PENNSYLVANIA

CITY           SKY/WX    TMP DP  RH WIND       PRES   REMARKS
SCRANTON       FAIR      85  52  32 CALM      29.83F
MOUNT POCONO   FAIR      81  52  36 NW3       29.88F
ALLENTOWN      FAIR      89  60  37 NW10      29.79F
QUAKERTOWN*    CLEAR     90  66  45 CALM      29.81F
READING        FAIR      89  66  46 VRB3      29.79F
LANCASTER      FAIR      89  63  41 W9        29.79F
COATESVILLE    FAIR      88  66  48 N7        29.83F
POTTSTOWN      FAIR      87  62  43 VRB5      29.81F
BLUE BELL      FAIR      88  64  45 W9        29.81F
DOYLESTOWN     FAIR      89  66  46 SW8       29.79F
WILLOW GROVE   NOT AVBL
NORTH PHILA    FAIR      91  68  46 SW9G17    29.80F HX  95
PHILADELPHIA   LGT RAIN  83  71  67 W3        29.79S
$$




USA.gov is the U.S. government's official web portal to all federal, state and local government web resources and services.